Regional Weather Roundup
Issued by NWS Memphis, TN

Home | Current Version | Previous Version | Text Only | Print | Product List | Glossary On
Versions: 1 2 3 4 5 6 7 8 9 10 11 12 13 14 15 16 17 18 19 20 21 22 23 24 25 26 27 28 29 30 31 32 33 34 35 36 37 38 39 40 41 42 43 44 45 46 47 48 49 50
477
ASUS44 KMEG 090810
RWRMEG
MEMPHIS CWA HOURLY WEATHER ROUNDUP
NATIONAL WEATHER SERVICE MEMPHIS TN
200 AM CST TUE FEB 09 2016

...WEST TENNESSEE...

CITY           SKY/WX    TMP DP  RH WIND       PRES   REMARKS
MEMPHIS INTL   CLOUDY    35  17  47 NW21G28   29.96S WCI  24
NWS MEMPHIS      N/A     33 N/A N/A MISG        N/A
JACKSON        CLOUDY    31  18  58 NW12      29.92F WCI  22
DYERSBURG      CLOUDY    30  16  55 NW12G20   29.94F WCI  21
UNION CITY       N/A     27  16  63 NW12      29.89F WCI  16
PARIS          CLOUDY    25  12  58 W10       29.88F WCI  15


...EASTERN ARKANSAS...

CITY           SKY/WX    TMP DP  RH WIND       PRES   REMARKS
JONESBORO      CLOUDY    31  18  58 NW9       29.97F WCI  23
WEST MEMPHIS   CLOUDY    33  21  61 NW10G18   29.98S WCI  25
BATESVILLE     PTCLDY    32  12  43 SW12G20   30.00F WCI  23
NEWPORT        PTCLDY    32  16  52 NW15G26   30.00F WCI  22
WALNUT RIDGE   CLOUDY    30  16  55 NW16      29.98F WCI  19
BLYTHEVILLE    CLOUDY    32  19  58 NW14      29.95F WCI  22
SEARCY         CLEAR     34  15  46 NW9       30.04S WCI  27
STUTTGART      CLEAR     32  19  59 NW9       30.04F WCI  24
PINE BLUFF     PTCLDY    35  15  44 W8        30.07R WCI  29
MONTICELLO     PTCLDY    35  15  44 NW6       30.07S WCI  30


...NORTH MISSISSIPPI...

CITY           SKY/WX    TMP DP  RH WIND       PRES   REMARKS
TUPELO         CLOUDY    36  17  46 VRB7      29.95S WCI  30
OXFORD         CLOUDY    36  16  44 NW13G18   29.97F WCI  27
TUNICA         CLOUDY    36  18  48 W17G25    30.00S WCI  25
CORINTH        CLOUDY    34  18  51 W15G21    29.91S WCI  24
GREENWOOD      CLEAR     36  20  52 NW6       30.01F WCI  31
COLUMBUS       CLOUDY    37  21  51 W8        29.95S WCI  31
STARKVILLE     CLOUDY    36  21  55 W5        29.97F WCI  32
GOLDEN TRIANGL CLOUDY    37  19  48 CALM      29.95F


...SOUTHEAST MISSOURI...

CITY           SKY/WX    TMP DP  RH WIND       PRES   REMARKS
WEST PLAINS    PTCLDY    26  12  55 NW18G26   29.92F WCI  13
POPLAR BLUFF   CLOUDY    29  14  53 NW20      29.94S WCI  16
CAPE GIRARDEAU CLOUDY    27  15  61 NW9       29.91S WCI  18


...NORTHWEST ALABAMA...

CITY           SKY/WX    TMP DP  RH WIND       PRES   REMARKS
MUSCLE SHOALS  CLOUDY    34  20  56 NW8       29.89F WCI  27


...MIDDLE TENNESSEE...

CITY           SKY/WX    TMP DP  RH WIND       PRES   REMARKS
NASHVILLE      FLURRIES  27  19  72 W6        29.86F WCI  20
CLARKSVILLE    LGT SNOW  25  21  85 NW9       29.87S FOG     WCI  15
COLUMBIA       CLOUDY    28  25  86 NW3       29.84F


...WESTERN KENTUCKY...

CITY           SKY/WX    TMP DP  RH WIND       PRES   REMARKS
PADUCAH        LGT SNOW  26  19  74 NW7       29.89S WCI  18
FORT CAMPBELL  FLURRIES  24  20  86 NW7       29.86F WCI  16


...CENTRAL ARKANSAS...

CITY           SKY/WX    TMP DP  RH WIND       PRES   REMARKS
LITTLE ROCK    MOCLDY    38  12  34 NW22G31   30.05S WCI  27


SKY/WX REPORTED AS FAIR MEANS FEW OR NO CLOUDS BELOW
12 THOUSAND FEET.





USA.gov is the U.S. government's official web portal to all federal, state and local government web resources and services.